Location: Cactus School
(34.5700°N, 118.0931°W)
Time: 21:27:15
(UTC-07:00)

Vanguard 2 - Pass Details

Date: 25 April 2024
Orbit: 553 x 2914 km, 32.9° (Epoch: 18 May)

Event Time Altitude Azimuth Distance (km) Brightness Sun altitude
Rises 05:24:57 0° 281° (W) 6,266 11.7 -9.2°
Reaches altitude 10° 05:28:48 10° 279° (W) 5,443 11.3 -8.4°
Maximum altitude 05:46:00 71° 200° (SSW) 3,016 10.4 -5.1°
Drops below altitude 10° 06:02:01 10° 121° (ESE) 5,107 12.4 -2.0°
Sets 06:05:30 0° 119° (ESE) 5,877 12.8 -1.3°
